Regional Weather Roundup
Issued by NWS

Home | Current Version | Previous Version | Graphics & Text | Print | Product List | Glossary On
Versions: 1 2 3 4 5 6 7 8 9 10 11 12 13 14 15 16 17 18 19 20 21 22 23 24 25 26 27 28 29 30 31 32 33 34 35 36 37 38 39 40 41 42 43 44 45 46 47 48 49 50
000
ASUS43 KFSD 121102
RWRSD

WEATHER ROUNDUP FOR SOUTH DAKOTA
NATIONAL WEATHER SERVICE SIOUX FALLS SD
500 AM CST FRI FEB 12 2016

NOTE: "FAIR" INDICATES FEW OR NO CLOUDS BELOW 12,000 FEET WITH NO
SIGNIFICANT WEATHER AND/OR OBSTRUCTIONS TO VISIBILITY.


SDZ001>005-009-010-012>017-121200-
NORTHWEST AND NORTH CENTRAL SOUTH DAKOTA

CITY           SKY/WX    TMP DP  RH WIND       PRES   REMARKS
BUFFALO          N/A     27  22  81 N8        30.25R WCI  19
FAITH            N/A     23  20  88 NE7       30.33R WCI  15
MOBRIDGE       CLOUDY    20  14  77 N9        30.37R WCI   9
$$

SDZ012>016-024>037-041>051-057-063-072>074-121200-
SOUTHWEST AND SOUTH CENTRAL SOUTH DAKOTA

CITY           SKY/WX    TMP DP  RH WIND       PRES   REMARKS
RAPID CTY ARPT CLOUDY    30  27  88 N9        30.31R WCI  22
PIERRE         CLOUDY    21  16  81 N13       30.37R WCI   9
CUSTER         CLEAR     32  22  66 NW8       30.21R WCI  25
ELLSWORTH AFB  CLOUDY    31  29  94 N8        30.30R WCI  23
PHILIP         CLOUDY    27  23  85 N9        30.34R WCI  18
PINE RIDGE     CLOUDY    33  28  81 N7        30.28R WCI  27
WINNER         CLOUDY    27  23  85 N15       30.33R FOG     WCI  15
$$

SDZ004>011-016>023-039-040-121200-
NORTHEAST SOUTH DAKOTA

CITY           SKY/WX    TMP DP  RH WIND       PRES   REMARKS
ABERDEEN       CLOUDY    14   7  73 N15       30.41R WCI  -1
WATERTOWN      CLOUDY    11   6  81 N12       30.31R WCI  -3
BROOKINGS      CLOUDY    11   7  84 N12       30.31R WCI  -3
SISSETON         N/A     10   6  84 N18       30.39R WCI  -8
$$

SDZ017-020-022-023-036>040-048>070-121200-
SOUTHEAST SOUTH DAKOTA

CITY           SKY/WX    TMP DP  RH WIND       PRES   REMARKS
SIOUX FALLS    CLOUDY    17  11  77 N16       30.32R WCI   2
HURON          CLOUDY    15  10  80 N14       30.38R WCI   0
CHAMBERLAIN    CLOUDY    20  17  87 N10       30.36R WCI   8
MITCHELL       CLOUDY    17  13  84 N13       30.38R WCI   4
YANKTON        CLOUDY    21  16  79 N14       30.36R WCI   8
$$

ABBREVIATIONS USED IN REMARKS
   TC - TEMPERATURE IN CELSIUS
  WCI - WIND CHILL INDEX
   HX - HEAT INDEX
  VSB - VISIBILITY




USA.gov is the U.S. government's official web portal to all federal, state and local government web resources and services.